TimeCDT,TemperatureF,Dew PointF,Humidity,Sea Level PressureIn,VisibilityMPH,Wind Direction,Wind SpeedMPH,Gust SpeedMPH,PrecipitationIn,Events,Conditions,WindDirDegrees,DateUTC
1:53 AM,73.0,66.0,79,29.91,10.0,South,9.2,-,N/A,,Overcast,170,2012-10-23 06:53:00
2:53 AM,73.0,66.9,81,29.92,10.0,South,6.9,18.4,N/A,,Overcast,170,2012-10-23 07:53:00
3:53 AM,73.0,66.9,81,29.91,10.0,South,8.1,-,N/A,,Overcast,180,2012-10-23 08:53:00
4:53 AM,73.0,66.9,81,29.91,10.0,South,8.1,-,N/A,,Overcast,170,2012-10-23 09:53:00
5:53 AM,72.0,66.9,84,29.93,10.0,SSE,4.6,-,N/A,,Overcast,160,2012-10-23 10:53:00
6:53 AM,72.0,66.9,84,29.94,10.0,South,5.8,-,N/A,,Overcast,170,2012-10-23 11:53:00
7:53 AM,72.0,66.9,84,29.94,10.0,SSE,3.5,-,0.00,,Overcast,150,2012-10-23 12:53:00
8:45 AM,72.0,66.9,84,30.01,10.0,SSE,4.6,-,N/A,,Overcast,160,2012-10-23 13:45:00
8:53 AM,72.0,66.9,84,29.96,10.0,SSE,5.8,-,N/A,,Overcast,160,2012-10-23 13:53:00
9:14 AM,72.0,68.0,87,30.02,10.0,South,4.6,-,N/A,,Overcast,170,2012-10-23 14:14:00
9:53 AM,73.0,68.0,84,29.98,10.0,SSE,4.6,-,N/A,,Overcast,160,2012-10-23 14:53:00
10:53 AM,73.9,68.0,82,29.97,10.0,SSE,8.1,-,N/A,,Overcast,160,2012-10-23 15:53:00
11:20 AM,75.0,68.0,79,30.02,10.0,South,10.4,17.3,N/A,,Overcast,180,2012-10-23 16:20:00
12:35 PM,75.9,66.9,74,30.01,10.0,South,9.2,-,N/A,,Overcast,170,2012-10-23 17:35:00
1:13 PM,77.0,68.0,74,30.00,10.0,South,6.9,-,N/A,,Overcast,170,2012-10-23 18:13:00
1:53 PM,77.0,68.0,74,29.94,10.0,SSE,9.2,-,N/A,,Overcast,160,2012-10-23 18:53:00
2:46 PM,77.0,66.9,71,29.97,10.0,South,9.2,-,N/A,,Overcast,180,2012-10-23 19:46:00
2:53 PM,78.1,68.0,71,29.92,10.0,South,6.9,-,N/A,,Overcast,170,2012-10-23 19:53:00
3:53 PM,79.0,68.0,69,29.91,10.0,SSE,6.9,-,N/A,,Overcast,150,2012-10-23 20:53:00
4:53 PM,80.1,68.0,67,29.91,10.0,Variable,6.9,-,N/A,,Overcast,0,2012-10-23 21:53:00
5:53 PM,80.1,66.9,64,29.90,10.0,SSE,4.6,-,N/A,,Mostly Cloudy,160,2012-10-23 22:53:00
6:53 PM,78.1,66.9,68,29.91,10.0,SE,4.6,-,N/A,,Partly Cloudy,140,2012-10-23 23:53:00
7:53 PM,75.0,66.9,76,29.92,10.0,ESE,3.5,-,N/A,,Partly Cloudy,120,2012-10-24 00:53:00
8:53 PM,75.0,66.0,73,29.93,10.0,SE,4.6,-,N/A,,Clear,130,2012-10-24 01:53:00
9:53 PM,75.0,64.9,71,29.94,10.0,SSE,5.8,-,N/A,,Clear,150,2012-10-24 02:53:00
10:53 PM,73.0,66.0,79,29.94,10.0,SSE,6.9,-,N/A,,Clear,160,2012-10-24 03:53:00
11:53 PM,72.0,66.0,81,29.94,10.0,SSE,8.1,-,N/A,,Clear,160,2012-10-24 04:53:00